Location: Baix
(44.7118°N, 4.7648°E)
Time: 06:59:23
(UTC+00:00)

Vanguard 1 - Pass Details

Date: 30 November 2020
Orbit: 648 x 3834 km, 34.3° (Epoch: 21 January)

Event Time Altitude Azimuth Distance (km) Brightness Sun altitude
Rises 06:37:02 0° 255° (WSW) 3,745 12.6 -4.0°
Reaches altitude 10° 06:39:18 10° 249° (WSW) 3,044 12.2 -3.6°
Maximum altitude 06:46:31 46° 178° (S) 2,126 12.1 -2.5°
Drops below altitude 10° 06:59:27 10° 112° (ESE) 5,342 15.9 -0.5°
Sets 07:04:54 0° 108° (ESE) 6,857 16.4 0.3°
